Regional Weather Roundup
Issued by NWS State College, PA

Home | Current Version | Previous Version | Text Only | Print | Product List | Glossary On
Versions: 1 2 3 4 5 6 7 8 9 10 11 12 13 14 15 16 17 18 19 20 21 22 23 24 25 26 27 28 29 30 31 32 33 34 35 36 37 38 39 40 41 42 43 44 45 46 47 48 49 50
000
ASUS41 KCTP 180610
RWRCTP

REGIONAL WEATHER ROUNDUP
NATIONAL WEATHER SERVICE STATE COLLEGE PA
200 AM EDT FRI APR 18 2014

Note: "fair" indicates few or no clouds below 12,000 feet with no
significant weather and/or obstructions to visibility.

* = STATION THAT DOES NOT REPORT PRECIPITATION /E.G. RAIN...SNOW...ETC/
    THUNDER OR FOG.

PAZ002>004-007>009-013>016-020>023-029>032-180700-
WESTERN PENNSYLVANIA

CITY           SKY/WX    TMP DP  RH WIND       PRES   REMARKS
ERIE           FAIR      50  25  37 S16G24    30.30F
MEADVILLE      FAIR      45  25  45 VRB6      30.32F
FRANKLIN*      FAIR      41  25  52 SE9       30.37S
NEW CASTLE     FAIR      47  27  46 VRB3      30.34F
BEAVER COUNTY  NOT AVBL
BUTLER*        FAIR      43  25  49 E7        30.36F
PITTSBURGH INT FAIR      48  27  44 SE7       30.33F
PITTSBURGH     FAIR      48  26  42 SE7       30.32F
INDIANA*       FAIR      43  28  56 SE8       30.37F
LATROBE        CLEAR     46  30  53 SE7       30.35F
WASHINGTON CO* FAIR      39  28  65 CALM      30.34F
$$

PAZ004>006-010>012-017>019-024>028-033>037-041-042-045-046-049>053-180700-
CENTRAL PENNSYLVANIA

CITY           SKY/WX    TMP DP  RH WIND       PRES   REMARKS
BRADFORD       FAIR      39  24  55 SE9       30.37F
DUBOIS         FAIR      41  29  62 SE10      30.36F
CLEARFIELD     FAIR      39  28  64 E5        30.42F
JOHNSTOWN      FAIR      35  27  72 SE7       30.37F
ALTOONA        FAIR      38  30  73 S7        30.44F
STATE COLLEGE  FAIR      42  26  53 SE3       30.45F
WILLIAMSPORT   FAIR      40  27  59 E9        30.52F
SELINSGROVE    FAIR      41  28  60 SE12      30.54F
FT INDIANTOWN  NOT AVBL
CAPITAL CITY   FAIR      38  29  70 SE5       30.55F
HARRISBURG     FAIR      38  28  67 SE8       30.55F
YORK           FAIR      34  29  82 SE5       30.54F
$$

PAZ038>040-043-044-047-048-054-055-060>062-067>071-180700-
EASTERN PENNSYLVANIA

CITY           SKY/WX    TMP DP  RH WIND       PRES   REMARKS
SCRANTON       FAIR      32  25  75 S6        30.55S
MOUNT POCONO   CLOUDY    30  27  88 S6        30.53R
ALLENTOWN      CLOUDY    37  30  75 SW5       30.60F
QUAKERTOWN*    CLOUDY    37  32  81 E3        30.59F
READING        CLOUDY    38  29  70 SE7       30.58F
LANCASTER      FAIR      33  27  78 E6        30.56F
COATESVILLE    CLOUDY    36  30  80 E7        30.57F
POTTSTOWN      CLOUDY    36  31  82 CALM      30.60F
BLUE BELL      CLOUDY    39  32  75 E6        30.58F
DOYLESTOWN     CLOUDY    36  31  82 CALM      30.58F
WILLOW GROVE   NOT AVBL
NORTH PHILA    CLOUDY    40  28  62 E7        30.61F
PHILADELPHIA   CLOUDY    40  27  59 E12       30.60F
$$



USA.gov is the U.S. government's official web portal to all federal, state and local government web resources and services.